Retour au catalogue

STARLINK-38059

ActifCommunicationsSSO
NORAD 69714·PAYLOAD·🇺🇸 United States

Lancé Jun 28, 2026 depuis Vandenberg Space Force Base

Loading…

Prochains Passages (prochaines 24 heures)

TLE

FraisSource: CelesTrak SupGP

Époque: Sep 15, 2026, 04:06 UTC

1 69714C 26147L   26258.17131944 -.00048666  00000+0 -15109-2 0  2587
2 69714  97.2836 294.5956 0000913 102.0037 359.9615 15.33459786    10

Suivez STARLINK-38059 en temps réel avec AllMySat

Download on the App Store